Clines Corner, NM

10:29 AM MDT on May 20, 2018 (GMT -0600)
Clines Corner

Weather History for KCQC - December, 2012

Change the Weather History Date:

Sunday, December 16, 2012

  Actual Average (KSAF) Record (KSAF)
Temperature  
Mean Temperature 26 °F -  
Max Temperature 30 °F 35 °F 55 °F (2016)
Min Temperature 21 °F 10 °F 10 °F (1993)
Degree Days  
Heating Degree Days 40    
Moisture  
Dew Point 20 °F    
Average Humidity 78    
Maximum Humidity 93    
Minimum Humidity 67    
Precipitation  
Precipitation 0.00 in - - ()
Sea Level Pressure  
Sea Level Pressure 29.88 in    
Wind  
Wind Speed 23 mph (WNW)    
Max Wind Speed 34 mph    
Max Gust Speed 40 mph    
Visibility 8 miles    
Events Snow    
Averages and records for this station are not official NWS values.
T = Trace of Precipitation, MM = Missing Value Source: NWS Daily Summary

Daily Weather History Graph

Daily Weather History Graph

Search for Another Location

Airport or City:

Astronomy

Dec. 16, 2012 Rise Set
Actual Time 7:04 AM MST 4:52 PM MST
Civil Twilight 6:36 AM MST 5:21 PM MST
Nautical Twilight 6:04 AM MST 5:52 PM MST
Astronomical Twilight 5:33 AM MST 6:23 PM MST
Moon 9:46 AM MST (12/16) 9:02 PM MST (12/16)
Length of Visible Light 10h 45m
Length of Day
9h 48m
Waxing Crescent, 16% of the Moon is Illuminated
Dec 16
Waxing Crescent
Dec 19
First Quarter
Dec 28
Full
Jan 4
Last Quarter
Jan 11
New

Hourly Weather History & Observations

Time (MST) Temp. Windchill Dew Point Humidity Pressure Visibility Wind Dir Wind Speed Gust Speed Precip Events Conditions
12:01 AM 28.4 °F 15.1 °F 26.6 °F 93% 29.84 in 5.0 mi West 20.7 mph 28.8 mph 0.00 in Snow Light Snow
12:13 AM 28.4 °F 14.7 °F 26.6 °F 93% 29.84 in 4.0 mi West 21.9 mph 28.8 mph 0.00 in Snow Light Snow
12:18 AM 28.4 °F 15.8 °F 26.6 °F 93% 29.84 in 1.8 mi West 18.4 mph - 0.00 in Snow Light Snow
12:36 AM 28.4 °F 14.7 °F 26.6 °F 93% 29.83 in 3.0 mi West 21.9 mph - 0.00 in Snow Light Snow
12:53 AM 28.0 °F 14.9 °F 26.1 °F 92% 29.84 in 3.0 mi West 19.6 mph - 0.00 in   Overcast
1:00 AM 28.4 °F 15.8 °F 26.6 °F 93% 29.83 in 1.8 mi West 18.4 mph - N/A   Overcast
1:09 AM 28.4 °F 14.7 °F 26.6 °F 93% 29.83 in 3.0 mi West 21.9 mph 31.1 mph N/A   Overcast
1:18 AM 28.4 °F 14.7 °F 26.6 °F 93% 29.83 in 10.0 mi West 21.9 mph 29.9 mph N/A   Overcast
1:27 AM 28.4 °F 15.8 °F 26.6 °F 93% 29.83 in 10.0 mi West 18.4 mph - N/A   Overcast
1:41 AM 26.6 °F 12.4 °F 24.8 °F 93% 29.83 in 10.0 mi West 21.9 mph - N/A   Overcast
1:53 AM 27.0 °F 12.5 °F 23.0 °F 85% 29.83 in 10.0 mi West 23.0 mph - N/A   Mostly Cloudy
2:53 AM 24.1 °F 9.4 °F 19.0 °F 81% 29.86 in 10.0 mi WNW 20.7 mph - N/A   Mostly Cloudy
3:53 AM 21.9 °F 6.5 °F 17.1 °F 82% 29.87 in 10.0 mi WNW 20.7 mph - N/A   Clear
4:53 AM 21.9 °F 6.5 °F 15.1 °F 75% 29.88 in 10.0 mi WNW 20.7 mph - N/A   Clear
5:53 AM 21.9 °F 5.8 °F 14.0 °F 72% 29.88 in 10.0 mi WNW 23.0 mph - N/A   Clear
6:53 AM 21.9 °F 6.5 °F 14.0 °F 72% 29.91 in 10.0 mi WNW 20.7 mph - N/A   Mostly Cloudy
7:53 AM 23.0 °F 7.6 °F 14.0 °F 68% 29.89 in 10.0 mi WNW 21.9 mph - N/A   Scattered Clouds
8:53 AM 24.1 °F 8.7 °F 16.0 °F 71% 29.89 in 10.0 mi WNW 23.0 mph - N/A   Clear
9:53 AM 26.1 °F 10.4 °F 18.0 °F 71% 29.89 in 10.0 mi WNW 26.5 mph - 0.00 in   Scattered Clouds
10:53 AM 28.9 °F 13.5 °F 19.9 °F 69% 29.86 in 2.5 mi WNW 29.9 mph 38.0 mph 0.00 in   Clear
11:06 AM 28.4 °F 12.7 °F 21.2 °F 74% 29.83 in 4.0 mi WNW 29.9 mph - 0.00 in   Clear
11:53 AM 30.0 °F 14.7 °F 21.0 °F 69% 29.83 in 3.0 mi WNW 31.1 mph 38.0 mph 0.00 in   Clear
12:53 PM 30.9 °F 17.8 °F 21.0 °F 67% 29.83 in 10.0 mi WNW 23.0 mph - 0.00 in   Clear
1:51 PM 30.2 °F 15.4 °F 21.2 °F 69% 29.80 in 10.0 mi WNW 28.8 mph - N/A   Overcast
1:53 PM 30.0 °F 15.4 °F 21.9 °F 72% 29.83 in 10.0 mi WNW 27.6 mph - N/A   Overcast
2:02 PM 28.4 °F 12.5 °F 21.2 °F 74% 29.80 in 10.0 mi WNW 31.1 mph 36.8 mph N/A   Overcast
2:53 PM 28.9 °F 14.3 °F 21.0 °F 72% 29.86 in 10.0 mi NW 26.5 mph 31.1 mph N/A   Clear
3:41 PM 28.4 °F 14.1 °F 19.4 °F 69% 29.85 in 10.0 mi NW 24.2 mph 32.2 mph N/A   Overcast
3:53 PM 27.0 °F 11.9 °F 18.0 °F 69% 29.92 in 10.0 mi WNW 25.3 mph 34.5 mph N/A   Overcast
4:03 PM 26.6 °F 12.0 °F 17.6 °F 69% 29.85 in 10.0 mi WNW 23.0 mph 33.4 mph N/A   Overcast
4:53 PM 25.0 °F 9.2 °F 16.0 °F 69% 29.93 in 10.0 mi WNW 25.3 mph 33.4 mph N/A   Partly Cloudy
5:53 PM 24.1 °F 8.0 °F 16.0 °F 71% 29.99 in 10.0 mi NW 25.3 mph 35.7 mph N/A   Clear
6:53 PM 24.1 °F 7.7 °F 16.0 °F 71% 30.02 in 10.0 mi WNW 26.5 mph 38.0 mph N/A   Clear
7:53 PM 23.0 °F 4.4 °F 15.1 °F 72% 30.02 in 5.0 mi WNW 34.5 mph - N/A Snow Blowing Snow
8:53 PM 21.9 °F 4.5 °F 15.1 °F 75% 30.03 in 10.0 mi WNW 27.6 mph - N/A   Clear
9:53 PM 21.0 °F 5.7 °F 14.0 °F 74% 30.04 in 10.0 mi WNW 19.6 mph - N/A   Clear
10:53 PM 21.0 °F 3.6 °F 15.1 °F 78% 30.03 in 10.0 mi WNW 26.5 mph 31.1 mph N/A   Clear
11:53 PM 21.9 °F 3.4 °F 15.1 °F 75% 30.00 in 10.0 mi NW 32.2 mph 40.3 mph N/A   Clear